Terminal Aerodrome Forecast
Issued by NWS Denver/Boulder, CO

Home | Current Version | Previous Version | Text Only | Print | Product List | Glossary On
Versions: 1 2 3 4 5 6 7 8 9 10 11 12 13 14 15 16 17 18 19 20 21 22 23 24 25 26 27 28 29 30 31 32 33 34 35 36 37 38 39 40 41 42 43 44 45 46 47 48 49 50
000
FTUS45 KBOU 011711 AAM
TAFDEN
TAF AMD
KDEN 011711Z 0117/0218 VRB03KT 3SM BR FEW002 SCT006 BKN200
     FM011800 VRB04KT 5SM BR SCT006 BKN200
     FM012000 08006KT P6SM SCT015 BKN030
     FM020100 14006KT P6SM VCSH SCT008 BKN015 PROB30 0202/0205 5SM
      -SN BR BKN008
     FM020500 16008KT P6SM VCSH BKN015
     FM020900 16010KT P6SM SCT015 BKN030=

USA.gov is the U.S. government's official web portal to all federal, state and local government web resources and services.